Location: Unspecified
(0.0000°N, 0.0000°E)
Time: 06:43:30
(UTC+00:00)

ISS - Pass Details

Date: 15 September 2021
Orbit: 419 x 423 km, 51.6° (Epoch: 17 September)

Event Time Altitude Azimuth Distance (km) Brightness Sun altitude
Rises 04:33:44 0° 355° (N) 2,355 0.0 -20.4°
Reaches altitude 10° 04:36:39 10° 22° (NNE) 1,496 -0.7 -19.6°
Maximum altitude 04:38:24 14° 54° (NE) 1,302 -0.5 -19.2°
Drops below altitude 10° 04:40:09 10° 86° (E) 1,500 0.3 -18.7°
Sets 04:43:05 0° 113° (ESE) 2,368 1.2 -18.0°
